Location: McFarlands Corners
(41.4117°N, 81.3382°W)
Time: 14:21:56
(UTC+00:00)

Tiros 1 despin weight - Pass Details

Date: 17 February 2026
Orbit: 556 x 593 km, 48.2° (Epoch: 11 March)

Event Time Altitude Azimuth Distance (km) Brightness Sun altitude
Rises 20:09:18 0° 226° (SW) 2,736 ? 26.6°
Reaches altitude 10° 20:11:35 10° 222° (SW) 1,839 ? 26.3°
Maximum altitude 20:15:40 53° 145° (SE) 689 ? 25.8°
Drops below altitude 10° 20:19:45 10° 69° (ENE) 1,837 ? 25.3°
Sets 20:22:02 0° 64° (ENE) 2,734 ? 25.0°
